| time (UTC) | temp F | wind direction | speed MPH | gust MPH | rain 1hr in | rain 24hr in | rain mn in | humidity % | barometer mb |
| 20260504024748 | 102 | 0.0 | 0.0 | 0.00 | 0.00 | 0.00 | 17 | 1002.7 | |
| 20260504023748 | 97 | 0.0 | 0.0 | 0.00 | 0.00 | 0.00 | 19 | 1003.3 | |
| 20260504022748 | 98 | 0.0 | 0.0 | 0.00 | 0.00 | 0.00 | 18 | 1003.1 | |
| 20260504021748 | 96 | 0.0 | 0.0 | 0.00 | 0.00 | 0.00 | 20 | 1003.4 | |
| 20260504020748 | 105 | 0.0 | 0.0 | 0.00 | 0.00 | 0.00 | 16 | 1002.0 | |
| 20260504015748 | 105 | 0.0 | 0.0 | 0.00 | 0.00 | 0.00 | 16 | 1002.0 | |
| 20260504014748 | 108 | 0.0 | 0.0 | 0.00 | 0.00 | 0.00 | 15 | 1001.7 | |
| 20260504013748 | 103 | 0.0 | 0.0 | 0.00 | 0.00 | 0.00 | 16 | 1002.5 | |
| 20260504012748 | 107 | 0.0 | 0.0 | 0.00 | 0.00 | 0.00 | 16 | 1002.0 | |
| 20260504011748 | 107 | 0.0 | 0.0 | 0.00 | 0.00 | 0.00 | 16 | 1002.0 | |
| 20260504010748 | 106 | 0.0 | 0.0 | 0.00 | 0.00 | 0.00 | 16 | 1001.9 | |
| 20260504005748 | 104 | 0.0 | 0.0 | 0.00 | 0.00 | 0.00 | 17 | 1002.3 | |
| 20260504004748 | 109 | 0.0 | 0.0 | 0.00 | 0.00 | 0.00 | 15 | 1001.6 | |
| 20260504003748 | 109 | 0.0 | 0.0 | 0.00 | 0.00 | 0.00 | 15 | 1001.7 | |
| 20260504002748 | 102 | 0.0 | 0.0 | 0.00 | 0.00 | 0.00 | 17 | 1002.7 | |
| 20260504001748 | 109 | 0.0 | 0.0 | 0.00 | 0.00 | 0.00 | 15 | 1001.8 | |
| 20260504000748 | 104 | 0.0 | 0.0 | 0.00 | 0.00 | 0.00 | 17 | 1002.5 | |
| 20260503235748 | 108 | 0.0 | 0.0 | 0.00 | 0.00 | 0.00 | 16 | 1001.9 | |
| 20260503234748 | 110 | 0.0 | 0.0 | 0.00 | 0.00 | 0.00 | 15 | 1001.7 | |
| 20260503233748 | 112 | 0.0 | 0.0 | 0.00 | 0.00 | 0.00 | 14 | 1001.3 | |
| 20260503232748 | 109 | 0.0 | 0.0 | 0.00 | 0.00 | 0.00 | 16 | 1002.0 | |
| 20260503231748 | 108 | 0.0 | 0.0 | 0.00 | 0.00 | 0.00 | 16 | 1002.1 | |
| 20260503230748 | 107 | 0.0 | 0.0 | 0.00 | 0.00 | 0.00 | 16 | 1002.2 | |
| 20260503225748 | 107 | 0.0 | 0.0 | 0.00 | 0.00 | 0.00 | 16 | 1002.2 | |
| 20260503224748 | 109 | 0.0 | 0.0 | 0.00 | 0.00 | 0.00 | 16 | 1001.8 | |
| 20260503223748 | 116 | 0.0 | 0.0 | 0.00 | 0.00 | 0.00 | 14 | 1001.1 | |
| 20260503222748 | 116 | 0.0 | 0.0 | 0.00 | 0.00 | 0.00 | 13 | 1001.0 | |
| 20260503221748 | 113 | 0.0 | 0.0 | 0.00 | 0.00 | 0.00 | 15 | 1001.5 | |
| 20260503220748 | 123 | 0.0 | 0.0 | 0.00 | 0.00 | 0.00 | 12 | 1000.2 | |
| 20260503215748 | 108 | 0.0 | 0.0 | 0.00 | 0.00 | 0.00 | 17 | 1002.0 | |
| 20260503214748 | 112 | 0.0 | 0.0 | 0.00 | 0.00 | 0.00 | 16 | 1001.6 | |
| 20260503213748 | 97 | 0.0 | 0.0 | 0.00 | 0.00 | 0.00 | 21 | 1003.6 | |
| 20260503212748 | 99 | 0.0 | 0.0 | 0.00 | 0.00 | 0.00 | 19 | 1003.4 | |
| 20260503211748 | 95 | 0.0 | 0.0 | 0.00 | 0.00 | 0.00 | 21 | 1003.9 | |
| 20260503210748 | 103 | 0.0 | 0.0 | 0.00 | 0.00 | 0.00 | 19 | 1002.7 | |
| 20260503205748 | 100 | 0.0 | 0.0 | 0.00 | 0.00 | 0.00 | 20 | 1003.1 | |
| 20260503204748 | 101 | 0.0 | 0.0 | 0.00 | 0.00 | 0.00 | 20 | 1002.7 | |
| 20260503203748 | 105 | 0.0 | 0.0 | 0.00 | 0.00 | 0.00 | 18 | 1002.2 | |
| 20260503202748 | 98 | 0.0 | 0.0 | 0.00 | 0.00 | 0.00 | 22 | 1003.0 | |
| 20260503201748 | 95 | 0.0 | 0.0 | 0.00 | 0.00 | 0.00 | 24 | 1003.1 | |
| 20260503200748 | 94 | 0.0 | 0.0 | 0.00 | 0.00 | 0.00 | 24 | 1003.2 | |
| 20260503195748 | 103 | 0.0 | 0.0 | 0.00 | 0.00 | 0.00 | 19 | 1001.8 | |
| 20260503194747 | 98 | 0.0 | 0.0 | 0.00 | 0.00 | 0.00 | 21 | 1002.2 | |
| 20260503193748 | 101 | 0.0 | 0.0 | 0.00 | 0.00 | 0.00 | 20 | 1001.9 | |
| 20260503192748 | 97 | 0.0 | 0.0 | 0.00 | 0.00 | 0.00 | 20 | 1002.3 | |
| 20260503191748 | 96 | 0.0 | 0.0 | 0.00 | 0.00 | 0.00 | 21 | 1002.2 | |
| 20260503190748 | 101 | 0.0 | 0.0 | 0.00 | 0.00 | 0.00 | 19 | 1001.3 | |
| 20260503185748 | 98 | 0.0 | 0.0 | 0.00 | 0.00 | 0.00 | 20 | 1001.7 | |
| 20260503184748 | 100 | 0.0 | 0.0 | 0.00 | 0.00 | 0.00 | 19 | 1001.4 | |
| 20260503183748 | 99 | 0.0 | 0.0 | 0.00 | 0.00 | 0.00 | 20 | 1001.5 | |
| 20260503182748 | 107 | 0.0 | 0.0 | 0.00 | 0.00 | 0.00 | 16 | 1000.4 | |
| 20260503181748 | 102 | 0.0 | 0.0 | 0.00 | 0.00 | 0.00 | 19 | 1000.9 | |
| 20260503180748 | 95 | 0.0 | 0.0 | 0.00 | 0.00 | 0.00 | 22 | 1002.0 | |
| 20260503175748 | 105 | 0.0 | 0.0 | 0.00 | 0.00 | 0.00 | 18 | 1000.5 | |
| 20260503174747 | 104 | 0.0 | 0.0 | 0.00 | 0.00 | 0.00 | 18 | 1000.6 | |
| 20260503173748 | 105 | 0.0 | 0.0 | 0.00 | 0.00 | 0.00 | 18 | 1000.5 | |
| 20260503172748 | 100 | 0.0 | 0.0 | 0.00 | 0.00 | 0.00 | 20 | 1001.0 | |
| 20260503171747 | 105 | 0.0 | 0.0 | 0.00 | 0.00 | 0.00 | 18 | 1000.2 | |
| 20260503170748 | 98 | 0.0 | 0.0 | 0.00 | 0.00 | 0.00 | 21 | 1001.4 | |
| 20260503150748 | 113 | 0.0 | 0.0 | 0.00 | 0.00 | 0.00 | 11 | 998.0 | |
| 20260503130747 | 114 | 0.0 | 0.0 | 0.00 | 0.00 | 0.00 | 12 | 999.1 | |
| 20260503110747 | 111 | 0.0 | 0.0 | 0.00 | 0.00 | 0.00 | 13 | 1000.8 | |
| 20260503080748 | 114 | 0.0 | 0.0 | 0.00 | 0.00 | 0.00 | 15 | 1001.6 | |
| 20260503072747 | 113 | 0.0 | 0.0 | 0.00 | 0.00 | 0.00 | 16 | 1002.0 | |
| 20260503071747 | 112 | 0.0 | 0.0 | 0.00 | 0.00 | 0.00 | 16 | 1001.9 | |
| 20260503070747 | 109 | 0.0 | 0.0 | 0.00 | 0.00 | 0.00 | 17 | 1002.3 | |
| 20260503054747 | 113 | 0.0 | 0.0 | 0.00 | 0.00 | 0.00 | 16 | 1001.6 | |
| 20260503053747 | 111 | 0.0 | 0.0 | 0.00 | 0.00 | 0.00 | 16 | 1001.7 | |
| 20260503052747 | 109 | 0.0 | 0.0 | 0.00 | 0.00 | 0.00 | 17 | 1002.1 | |
| 20260503051747 | 110 | 0.0 | 0.0 | 0.00 | 0.00 | 0.00 | 17 | 1001.9 | |
| 20260503050747 | 112 | 0.0 | 0.0 | 0.00 | 0.00 | 0.00 | 16 | 1001.6 | |
| 20260503045747 | 106 | 0.0 | 0.0 | 0.00 | 0.00 | 0.00 | 18 | 1002.3 | |
| 20260503044748 | 107 | 0.0 | 0.0 | 0.00 | 0.00 | 0.00 | 18 | 1002.4 | |
| 20260503043747 | 105 | 0.0 | 0.0 | 0.00 | 0.00 | 0.00 | 18 | 1002.5 | |
| 20260503042747 | 112 | 0.0 | 0.0 | 0.00 | 0.00 | 0.00 | 16 | 1001.7 | |
| 20260503041747 | 101 | 0.0 | 0.0 | 0.00 | 0.00 | 0.00 | 21 | 1003.2 | |
| 20260503040747 | 106 | 0.0 | 0.0 | 0.00 | 0.00 | 0.00 | 18 | 1002.5 | |
| 20260503035747 | 113 | 0.0 | 0.0 | 0.00 | 0.00 | 0.00 | 16 | 1001.6 | |
| 20260503034747 | 102 | 0.0 | 0.0 | 0.00 | 0.00 | 0.00 | 20 | 1003.0 | |
| 20260503033747 | 111 | 0.0 | 0.0 | 0.00 | 0.00 | 0.00 | 17 | 1001.9 | |
| 20260503032747 | 109 | 0.0 | 0.0 | 0.00 | 0.00 | 0.00 | 17 | 1002.4 | |
| 20260503031747 | 108 | 0.0 | 0.0 | 0.00 | 0.00 | 0.00 | 17 | 1002.4 | |
| 20260503030747 | 111 | 0.0 | 0.0 | 0.00 | 0.00 | 0.00 | 16 | 1002.0 | |
| 20260503025747 | 111 | 0.0 | 0.0 | 0.00 | 0.00 | 0.00 | 16 | 1002.1 |